EN

Hourly Weather Wałbrzych

Today, 23 January, Saturday

Time Temperature Precipitation Wind Pressure Humidity
00:00 +2°C° 0 mm 1 mps 701 mmHg 87%
01:00 +2°C° 0 mm 1 mps 701 mmHg 86%
02:00 +2°C° 0.1 mm 1 mps 700 mmHg 88%
03:00 +2°C° 0.1 mm 1 mps 700 mmHg 90%
04:00 +1°C° 0.1 mm 2 mps 699 mmHg 92%
05:00 +2°C° 0.4 mm 1 mps 698 mmHg 94%
06:00 +2°C° 0.4 mm 1 mps 698 mmHg 96%
07:00 +1°C° 0.4 mm 1 mps 697 mmHg 98%
08:00 +1°C° 0.2 mm 2 mps 697 mmHg 97%
09:00 +1°C° 0.2 mm 3 mps 697 mmHg 96%
10:00 +1°C° 0.2 mm 4 mps 696 mmHg 96%
11:00 +1°C° 0 mm 5 mps 696 mmHg 91%
12:00 +2°C° 0 mm 5 mps 697 mmHg 87%
13:00 +2°C° 0 mm 6 mps 697 mmHg 83%
14:00 +1°C° 0.1 mm 6 mps 697 mmHg 86%
15:00 -1°C° 0.1 mm 6 mps 697 mmHg 90%
16:00 -2°C° 0.1 mm 7 mps 698 mmHg 93%
17:00 -3°C° 0 mm 6 mps 698 mmHg 92%
18:00 -4°C° 0 mm 5 mps 699 mmHg 90%
19:00 -5°C° 0 mm 5 mps 700 mmHg 89%
20:00 -4°C° 0 mm 4 mps 700 mmHg 90%
21:00 -4°C° 0 mm 3 mps 701 mmHg 91%
22:00 -3°C° 0 mm 2 mps 701 mmHg 91%
23:00 -3°C° 0 mm 2 mps 701 mmHg 91%

Tomorrow, 24 January, Sunday

Time Temperature Precipitation Wind Pressure Humidity
00:00 -3°C° 0 mm 2 mps 702 mmHg 90%
01:00 -3°C° 0 mm 2 mps 702 mmHg 90%
02:00 -1°C° 0 mm 1 mps 702 mmHg 90%
03:00 -1°C° 0 mm 1 mps 702 mmHg 90%
04:00 -1°C° 0 mm 1 mps 702 mmHg 90%
05:00 -2°C° 0 mm 1 mps 702 mmHg 90%
06:00 -2°C° 0 mm 1 mps 702 mmHg 90%
07:00 -2°C° 0 mm 1 mps 702 mmHg 90%
08:00 -1°C° 0 mm 1 mps 702 mmHg 88%
09:00 -1°C° 0 mm 1 mps 702 mmHg 85%
10:00 0°C° 0 mm 1 mps 703 mmHg 83%
11:00 0°C° 0 mm 1 mps 702 mmHg 81%
12:00 +1°C° 0 mm 1 mps 702 mmHg 79%
13:00 +1°C° 0 mm 1 mps 702 mmHg 77%
14:00 +1°C° 0 mm 1 mps 702 mmHg 80%
15:00 0°C° 0 mm 1 mps 702 mmHg 83%
16:00 0°C° 0 mm 1 mps 702 mmHg 86%
17:00 -1°C° 0 mm 1 mps 702 mmHg 87%
18:00 -1°C° 0 mm 1 mps 703 mmHg 88%
19:00 -2°C° 0 mm 1 mps 703 mmHg 89%
20:00 -2°C° 0 mm 1 mps 703 mmHg 88%
21:00 -2°C° 0 mm 1 mps 703 mmHg 87%
22:00 -2°C° 0 mm 1 mps 703 mmHg 86%
23:00 -1°C° 0 mm 1 mps 703 mmHg 85%

Day after tomorrow, 25 January, Monday

Time Temperature Precipitation Wind Pressure Humidity
00:00 -1°C° 0 mm 1 mps 703 mmHg 85%
01:00 -1°C° 0 mm 1 mps 703 mmHg 84%
02:00 -1°C° 0 mm 1 mps 704 mmHg 86%
03:00 -4°C° 0 mm 2 mps 704 mmHg 88%
04:00 -4°C° 0 mm 2 mps 704 mmHg 89%
05:00 -4°C° 0 mm 2 mps 705 mmHg 89%
06:00 -4°C° 0 mm 2 mps 705 mmHg 90%
07:00 -4°C° 0 mm 2 mps 706 mmHg 90%
08:00 -4°C° 0 mm 2 mps 706 mmHg 86%
09:00 -4°C° 0 mm 3 mps 707 mmHg 82%
10:00 -4°C° 0 mm 3 mps 707 mmHg 78%
11:00 -2°C° 0 mm 3 mps 708 mmHg 74%
12:00 -2°C° 0 mm 3 mps 708 mmHg 71%
13:00 -1°C° 0 mm 3 mps 708 mmHg 67%
14:00 -2°C° 0 mm 3 mps 708 mmHg 70%
15:00 -4°C° 0 mm 3 mps 708 mmHg 73%
16:00 -4°C° 0 mm 3 mps 709 mmHg 76%
17:00 -4°C° 0 mm 2 mps 709 mmHg 77%
18:00 -4°C° 0 mm 2 mps 709 mmHg 79%
19:00 -5°C° 0 mm 2 mps 710 mmHg 80%
20:00 -5°C° 0 mm 2 mps 710 mmHg 79%
21:00 -5°C° 0 mm 2 mps 710 mmHg 79%
22:00 -5°C° 0 mm 2 mps 710 mmHg 78%
23:00 -6°C° 0 mm 2 mps 710 mmHg 79%

26 January, Tuesday

Time Temperature Precipitation Wind Pressure Humidity
00:00 -6°C° 0 mm 2 mps 710 mmHg 81%
01:00 -6°C° 0 mm 2 mps 710 mmHg 82%
02:00 -6°C° 0 mm 2 mps 710 mmHg 83%
03:00 -6°C° 0 mm 2 mps 710 mmHg 84%
04:00 -6°C° 0 mm 2 mps 710 mmHg 85%
05:00 -6°C° 0 mm 2 mps 710 mmHg 86%
06:00 -6°C° 0 mm 2 mps 710 mmHg 87%
07:00 -6°C° 0 mm 2 mps 710 mmHg 88%
08:00 -6°C° 0 mm 2 mps 711 mmHg 84%
09:00 -6°C° 0 mm 3 mps 711 mmHg 81%
10:00 -5°C° 0 mm 3 mps 712 mmHg 78%
11:00 -4°C° 0 mm 3 mps 712 mmHg 74%
12:00 -4°C° 0 mm 4 mps 712 mmHg 71%
13:00 -3°C° 0 mm 4 mps 713 mmHg 67%
14:00 -4°C° 0 mm 4 mps 713 mmHg 71%
15:00 -4°C° 0 mm 4 mps 713 mmHg 75%
16:00 -4°C° 0 mm 3 mps 713 mmHg 79%
17:00 -5°C° 0 mm 3 mps 713 mmHg 82%
18:00 -5°C° 0 mm 3 mps 713 mmHg 84%
19:00 -6°C° 0 mm 3 mps 713 mmHg 86%
20:00 -6°C° 0 mm 3 mps 713 mmHg 86%
21:00 -6°C° 0 mm 3 mps 713 mmHg 87%
22:00 -7°C° 0 mm 3 mps 713 mmHg 87%
23:00 -7°C° 0 mm 3 mps 713 mmHg 88%

27 January, Wednesday

Time Temperature Precipitation Wind Pressure Humidity
00:00 -7°C° 0 mm 3 mps 713 mmHg 88%
01:00 -7°C° 0 mm 3 mps 712 mmHg 88%
02:00 -6°C° 0 mm 3 mps 712 mmHg 88%
03:00 -6°C° 0 mm 3 mps 712 mmHg 89%
04:00 -6°C° 0 mm 3 mps 711 mmHg 89%
05:00 -6°C° 0 mm 3 mps 711 mmHg 89%
06:00 -6°C° 0 mm 3 mps 710 mmHg 89%
07:00 -5°C° 0 mm 3 mps 710 mmHg 89%
08:00 -5°C° 0.1 mm 3 mps 710 mmHg 87%
09:00 -4°C° 0.1 mm 3 mps 710 mmHg 86%
10:00 -4°C° 0.1 mm 3 mps 710 mmHg 84%
11:00 -2°C° 0.1 mm 3 mps 710 mmHg 83%
12:00 -2°C° 0.1 mm 3 mps 709 mmHg 82%
13:00 -1°C° 0.1 mm 3 mps 709 mmHg 81%
14:00 -2°C° 0.1 mm 3 mps 709 mmHg 86%
15:00 -2°C° 0.1 mm 2 mps 709 mmHg 91%
16:00 0°C° 0.1 mm 1 mps 709 mmHg 96%
17:00 -1°C° 0.1 mm 1 mps 710 mmHg 96%
18:00 -1°C° 0.1 mm 1 mps 710 mmHg 97%
19:00 -3°C° 0.1 mm 2 mps 711 mmHg 97%
20:00 -3°C° 0.1 mm 2 mps 712 mmHg 96%
21:00 -3°C° 0.1 mm 2 mps 712 mmHg 96%
22:00 -3°C° 0.1 mm 2 mps 713 mmHg 95%
23:00 -3°C° 0 mm 2 mps 713 mmHg 95%

28 January, Thursday

Time Temperature Precipitation Wind Pressure Humidity
00:00 -4°C° 0 mm 2 mps 713 mmHg 95%
01:00 -2°C° 0 mm 1 mps 714 mmHg 95%
02:00 -2°C° 0 mm 1 mps 713 mmHg 95%
03:00 -2°C° 0 mm 1 mps 713 mmHg 95%
04:00 -2°C° 0 mm 1 mps 713 mmHg 94%
05:00 -2°C° 0.1 mm 1 mps 713 mmHg 94%
06:00 -2°C° 0.1 mm 1 mps 713 mmHg 94%
07:00 -2°C° 0.1 mm 1 mps 712 mmHg 94%
08:00 -3°C° 0.2 mm 2 mps 712 mmHg 94%
09:00 -2°C° 0.2 mm 2 mps 712 mmHg 95%
10:00 -2°C° 0.2 mm 2 mps 712 mmHg 95%
11:00 -1°C° 0.4 mm 2 mps 711 mmHg 96%
12:00 -1°C° 0.4 mm 2 mps 710 mmHg 96%
13:00 -1°C° 0.4 mm 2 mps 710 mmHg 97%
14:00 -1°C° 0.6 mm 2 mps 709 mmHg 97%
15:00 -1°C° 0.6 mm 2 mps 709 mmHg 97%
16:00 -1°C° 0.6 mm 2 mps 708 mmHg 97%
17:00 -1°C° 1.1 mm 2 mps 708 mmHg 97%
18:00 +1°C° 1.1 mm 2 mps 708 mmHg 97%
19:00 +1°C° 1.1 mm 2 mps 708 mmHg 97%
Show more

We Need Your Consent

Meteoprog and our Service Providers may store and access personal data such as cookies, device identifiers or other similar technologies on your device and process such data to personalise content and ads, as well as provide social media features and to analyse the traffic.

  • Store and/or access information on your device

    Cookies, device identifiers or other information can be stored or accessed on your device for the purposes indicated above.

  • Personalised ads and content, ad and content measurement, audience insights, and products development

    Ads and content can be personalised based on a profile. More data can be added to better personalise ads and content. Ad and content performance can be measured. Insights about the audience who saw the ads and content can be derived. Such data can be used to develop or improve user’s experience, systems and software.

By clicking ‘I Agree’ you will allow the use of indicated cookies, device identifiers, web beacons or other similar technologies. Your settings can be changed in the browser on your device.

For certain purposes, legitimate interests may be relied on, rather than consent. You can read more about this in our Privacy and Cookie Policy.